This is the latest recevied weather packets stored in our database for station/object DK9HI-WX. If no packets are shown the sender has not sent any weather packets the latest 10 day(s).
| Time | Temp. | Humidity | Pressure | Rain* | Wind** | Luminosity | Snow |
|---|---|---|---|---|---|---|---|
| 1788055822 | 68° F | 100% | 756.9 mmHg | - | - | - | - |
| 1788055222 | 68° F | 100% | 756.8 mmHg | - | - | - | - |
| 1788054622 | 68° F | 100% | 756.9 mmHg | - | - | - | - |
| 1788054022 | 68° F | 100% | 756.8 mmHg | - | - | - | - |
| 1788053422 | 68° F | 100% | 756.9 mmHg | - | - | - | - |
| 1788052822 | 68° F | 100% | 757 mmHg | - | - | - | - |
| 1788052222 | 67° F | 100% | 757 mmHg | - | - | - | - |
| 1788051622 | 67° F | 100% | 757 mmHg | - | - | - | - |
| 1788051022 | 67° F | 100% | 757.1 mmHg | - | - | - | - |
| 1788050422 | 67° F | 100% | 757.1 mmHg | - | - | - | - |
| 1788049822 | 67° F | 100% | 757.2 mmHg | - | - | - | - |
| 1788049222 | 67° F | 100% | 757.3 mmHg | - | - | - | - |
| 1788048622 | 67° F | 100% | 757.4 mmHg | - | - | - | - |
| 1788048022 | 67° F | 100% | 757.5 mmHg | - | - | - | - |
| 1788047422 | 67° F | 100% | 757.5 mmHg | - | - | - | - |
| 1788046822 | 67° F | 100% | 757.6 mmHg | - | - | - | - |
| 1788046222 | 67° F | 100% | 757.6 mmHg | - | - | - | - |
| 1788045622 | 68° F | 100% | 757.6 mmHg | - | - | - | - |
| 1788045022 | 68° F | 100% | 757.7 mmHg | - | - | - | - |
| 1788044421 | 68° F | 100% | 757.9 mmHg | - | - | - | - |
| 1788043822 | 68° F | 98% | 757.9 mmHg | - | - | - | - |
| 1788043222 | 68° F | 97% | 757.9 mmHg | - | - | - | - |
| 1788042622 | 68° F | 93% | 758.1 mmHg | - | - | - | - |
| 1788042022 | 69° F | 90% | 757.9 mmHg | - | - | - | - |
| 1788041422 | 69° F | 83% | 758.3 mmHg | - | - | - | - |
* Rain since midnight (hover to see other rain measurements)
** Current wind speed in m/s (hover to see current wind gust speed)